Location: Unspecified
(0.0000°N, 0.0000°E)
Time: 23:06:53
(UTC+00:00)

ISS - Pass Details

Date: 17 January 2022
Orbit: 413 x 422 km, 51.6° (Epoch: 27 January)

Event Time Altitude Azimuth Distance (km) Brightness Sun altitude
Exits shadow 04:41:09 54° 194° (SSW) 513 -3.4 -20.7°
Drops below altitude 10° 04:44:03 10° 153° (SSE) 1,503 -0.3 -20.0°
Sets 04:46:10 0° 150° (SSE) 2,370 0.9 -19.5°
